[[{"header":{"parameterUnit":"m.s-1","parameterCategory":1,"la1":30.2991,"la2":30.254,"lo1":-89.0895,"lo2":-89.0444,"dy":0.0017,"dx":0.0017,"nx":28,"ny":28,"refTime":"2024-04-19T09:00:00:Z","depth":0,"parameterNumber":2,"parameterNumberName":"U-component_of_WINDS"},"data":[0,0,0,0,0,0,0,0,0,0,0,0,0,0,0,0,0,0,0,0,0,0,0,0,0,0,0,0,0,0,0,0,0,0,0,0,0,0,0,0,0,0,0,0,0,0,0,0,0,0,0,0,0,0,0,0,0,0,0.2456,0.2457,0,0.2571,0.2573,0.2574,0.2623,0.2622,0.2622,0.2622,0.2741,0.2744,0.2748,0,0,0,0,0,0,0,0,0,0,0,0,0,0.2278,0.2281,0.2456,0.2457,0.2459,0.2571,0.2573,0.2574,0.2623,0.2622,0.2622,0.2622,0.274,0.2744,0.2748,0,0,0,0,0,0,0,0,0,0,0,0,0,0.237,0.2282,0.2456,0.2496,0.2501,0.2571,0.2573,0.2575,0.2623,0.2622,0.2622,0.2622,0.2738,0.2743,0.2748,0.2786,0,0,0.2764,0.2766,0,0,0,0,0,0,0,0,0.2365,0.2377,0.2489,0.2494,0.2499,0.2582,0.2554,0.2646,0.2623,0.2577,0.2622,0.2621,0.2688,0.2698,0.272,0.2792,0.2797,0.2764,0.2767,0.277,0.2771,0,0,0,0,0,0,0,0.2359,0.2372,0.2502,0.2491,0.2497,0.2509,0.2522,0.2571,0.2633,0.2581,0.2584,0.2597,0.2691,0.2715,0.2723,0.2799,0.2764,0.2769,0.2772,0.2774,0.2907,0.2907,0,0,0,0,0,0,0.2345,0.2366,0.2498,0.2505,0.243,0.2512,0.2527,0.2556,0.2633,0.2644,0.2597,0.2599,0.2706,0.2717,0.2727,0.2777,0.277,0.2774,0.2777,0.2906,0.2907,0.2907,0,0,0,0,0,0,0.2341,0.2357,0.2493,0.2437,0.2455,0.2516,0.2548,0.2558,0.2582,0.2645,0.2657,0.261,0.2707,0.272,0.2771,0.2781,0.2777,0.2781,0.2906,0.2906,0.2907,0.2875,0,0,0,0,0,0,0.2336,0.2355,0.237,0.2437,0.2458,0.2535,0.2549,0.2561,0.2591,0.2594,0.266,0.2671,0.2707,0.2763,0.2776,0.2788,0.2785,0.2905,0.2906,0.2907,0.2875,0.2874,0.2874,0,0,0,0,0,0.233,0.2356,0.237,0.2386,0.2478,0.2535,0.2547,0.2588,0.2591,0.2607,0.2647,0.2669,0.2778,0.2768,0.2783,0.2797,0.2905,0.2906,0.2907,0.2876,0.2875,0.2874,0,0,0,0,0,0,0.229,0.2366,0.2382,0.2432,0.2476,0.2543,0.2564,0.2586,0.2631,0.2632,0.2681,0.2696,0.2742,0.2775,0.2762,0.2837,0.2843,0.2847,0.2814,0.2814,0.2813,0.2804,0.2789,0,0,0,0,0,0.2286,0.2326,0.2391,0.2428,0.245,0.2503,0.2529,0.2557,0.2606,0.2625,0.2669,0.2716,0.276,0.2789,0.2834,0.288,0.2895,0.2897,0.2896,0.2895,0.2898,0.2925,0.2926,0.2911,0.2911,0.2911,0,0,0.2281,0.2327,0.235,0.2422,0.246,0.25,0.2519,0.2561,0.2591,0.2631,0.2682,0.2716,0.2771,0.2819,0.2843,0.2848,0.2906,0.2896,0.2895,0.2899,0.2926,0.2927,0.2929,0.2912,0.2912,0.2912,0,0,0.229,0.233,0.2365,0.2402,0.2459,0.2494,0.2503,0.2566,0.259,0.2641,0.2672,0.2709,0.2785,0.2823,0.2852,0.2875,0.2897,0.2889,0.2885,0.291,0.2911,0.2912,0.2921,0.2923,0.2891,0.2891,0.2891,0,0.2276,0.2338,0.238,0.2421,0.2451,0.2489,0.2525,0.2559,0.2628,0.2648,0.2652,0.2748,0.2788,0.2846,0.2851,0.2874,0.2885,0.2881,0.2907,0.2909,0.2911,0.2919,0.2922,0.289,0.289,0.289,0.289,0,0.2317,0.2359,0.2381,0.2446,0.2479,0.2517,0.2565,0.2593,0.2618,0.2652,0.2703,0.2752,0.2807,0.2823,0.2848,0.2884,0.2886,0.2898,0.2905,0.291,0.2919,0.2923,0.2888,0.2888,0.2889,0.2889,0,0,0.2305,0.2393,0.24,0.243,0.2495,0.2529,0.2568,0.2621,0.2645,0.269,0.2725,0.2788,0.2799,0.2832,0.2862,0.2884,0.2899,0.2894,0.2896,0.2893,0.2942,0.2932,0.2935,0.2913,0.2914,0.2915,0.2937,0,0.2324,0.2396,0.2435,0.249,0.253,0.2566,0.26,0.2644,0.2677,0.2715,0.2752,0.2796,0.2808,0.2828,0.2852,0.2892,0.2909,0.2891,0.2946,0.2947,0.2931,0.294,0.293,0.2949,0.2941,0.2941,0.2942,0,0.2355,0.24,0.2459,0.252,0.2538,0.2568,0.2619,0.2656,0.2706,0.2728,0.2765,0.2793,0.2836,0.284,0.2899,0.2886,0.2911,0.2934,0.2935,0.2942,0.2945,0.2947,0.2956,0.2958,0.2948,0.2947,0.2947,0,0.2341,0.2416,0.2461,0.2485,0.2557,0.2577,0.2608,0.2658,0.2687,0.2732,0.2752,0.2801,0.2829,0.2867,0.2908,0.2907,0.2964,0.2971,0.2984,0.2983,0.2994,0.2993,0.3007,0.301,0.301,0.301,0.301,0,0.2357,0.2392,0.2455,0.2483,0.2523,0.2567,0.2606,0.2639,0.2683,0.2718,0.2752,0.2784,0.2837,0.2876,0.2908,0.2953,0.2965,0.2984,0.2993,0.2981,0.2979,0.2998,0.2998,0.3011,0.301,0.301,0.301,0,0.2348,0.2391,0.2443,0.2506,0.2523,0.2549,0.2604,0.2632,0.2666,0.271,0.2723,0.2777,0.2824,0.2869,0.2932,0.2954,0.2999,0.301,0.2982,0.2986,0.2997,0.2995,0.3024,0.303,0.3028,0.3028,0.3028,0,0.2356,0.2383,0.2449,0.2475,0.2505,0.2545,0.2575,0.262,0.265,0.2709,0.273,0.2779,0.2822,0.2895,0.294,0.2989,0.3001,0.3008,0.3009,0.2996,0.3001,0.2999,0.3002,0.3007,0.3007,0.3007,0.3007,0,0.2365,0.2385,0.2426,0.2476,0.251,0.2551,0.2593,0.2612,0.2665,0.2697,0.2745,0.2778,0.2842,0.2891,0.2944,0.2976,0.3,0.3006,0.3012,0.3,0.2983,0.2993,0.2979,0.3005,0.3005,0.3005,0.3006,0.3006,0.2364,0.239,0.244,0.2486,0.2522,0.256,0.259,0.2628,0.2669,0.2724,0.2748,0.2797,0.2846,0.292,0.2952,0.2991,0.2997,0.3005,0.3007,0.3008,0.3006,0.2976,0.3001,0.3001,0.3001,0.3001,0.3001,0,0.2375,0.2409,0.245,0.2508,0.2543,0.2562,0.2609,0.2638,0.268,0.2724,0.2764,0.282,0.2867,0.2916,0.2966,0.2988,0.3,0.2999,0.2998,0.3005,0.2998,0.2988,0.2988,0.2988,0.2988,0.2988,0.2988,0.2988,0.2385,0.243,0.2455,0.2518,0.2552,0.26,0.2625,0.2661,0.2696,0.2756,0.2795,0.2827,0.2872,0.2926,0.297,0.2983,0.3,0.2997,0.3013,0.3005,0.3006,0.3006,0.2997,0.3,0.3,0.3017,0.3017,0.3017]},{"header":{"parameterUnit":"m.s-1","parameterCategory":1,"la1":30.2991,"la2":30.254,"lo1":-89.0895,"lo2":-89.0444,"dy":0.0017,"dx":0.0017,"nx":28,"ny":28,"refTime":"2024-04-19T09:00:00:Z","depth":0,"parameterNumber":3,"parameterNumberName":"V-component_of_WINDS"},"data":[0,0,0,0,0,0,0,0,0,0,0,0,0,0,0,0,0,0,0,0,0,0,0,0,0,0,0,0,0,0,0,0,0,0,0,0,0,0,0,0,0,0,0,0,0,0,0,0,0,0,0,0,0,0,0,0,0,0,2.8254,2.8254,0,2.8244,2.8244,2.8243,2.8197,2.8196,2.8195,2.8194,2.8184,2.8185,2.8186,0,0,0,0,0,0,0,0,0,0,0,0,0,2.8235,2.8235,2.8254,2.8254,2.8254,2.8244,2.8244,2.8243,2.8198,2.8196,2.8195,2.8194,2.8184,2.8185,2.8186,0,0,0,0,0,0,0,0,0,0,0,0,0,2.8236,2.8236,2.8254,2.823,2.8227,2.8244,2.8244,2.8243,2.8198,2.8196,2.8195,2.8193,2.8184,2.8185,2.8186,2.8225,0,0,2.8189,2.819,0,0,0,0,0,0,0,0,2.8236,2.8236,2.8233,2.8231,2.8229,2.822,2.8233,2.8237,2.8198,2.8209,2.8194,2.8192,2.8198,2.8197,2.8199,2.8225,2.8224,2.8189,2.819,2.8191,2.8191,0,0,0,0,0,0,0,2.8236,2.8237,2.825,2.8233,2.8231,2.8219,2.8218,2.8234,2.8213,2.8208,2.8205,2.8204,2.8196,2.8198,2.8198,2.8224,2.8189,2.819,2.8191,2.8191,2.8281,2.8283,0,0,0,0,0,0,2.8239,2.8237,2.825,2.825,2.8228,2.8221,2.8219,2.8225,2.8212,2.8209,2.8205,2.8202,2.8197,2.8197,2.8198,2.8243,2.8191,2.8192,2.8192,2.828,2.8282,2.8284,0,0,0,0,0,0,2.8239,2.8241,2.8251,2.8242,2.8243,2.8223,2.823,2.8225,2.8227,2.821,2.8206,2.8211,2.8196,2.8196,2.8219,2.8242,2.8192,2.8193,2.8278,2.828,2.8283,2.8334,0,0,0,0,0,0,2.8238,2.8241,2.8255,2.8243,2.8243,2.8272,2.8231,2.8226,2.8229,2.8225,2.8215,2.8212,2.8195,2.8217,2.822,2.8243,2.8194,2.8275,2.8279,2.8282,2.833,2.8338,2.8344,0,0,0,0,0,2.8238,2.827,2.8256,2.8258,2.8261,2.8273,2.8273,2.8253,2.8231,2.8246,2.8235,2.8212,2.8239,2.822,2.8222,2.8246,2.8274,2.8278,2.8282,2.8327,2.8336,2.8344,0,0,0,0,0,0,2.8286,2.8268,2.8253,2.8282,2.8279,2.8265,2.8283,2.8263,2.8267,2.8263,2.8237,2.8235,2.8261,2.8256,2.8235,2.8283,2.8253,2.8257,2.8286,2.8295,2.8302,2.8303,2.8195,0,0,0,0,0,2.83,2.8311,2.8295,2.8322,2.8322,2.8303,2.8307,2.8291,2.8288,2.8287,2.8277,2.8275,2.8283,2.8288,2.8295,2.8329,2.8326,2.8346,2.8354,2.836,2.8364,2.8382,2.8391,2.8296,2.8296,2.8296,0,0,2.8329,2.8321,2.8329,2.8332,2.8328,2.834,2.8302,2.8316,2.8325,2.8289,2.8309,2.8302,2.8298,2.8326,2.8338,2.8323,2.8389,2.8365,2.837,2.8371,2.8387,2.8396,2.8404,2.8299,2.8298,2.8298,0,0,2.8388,2.8383,2.8405,2.8402,2.8397,2.8384,2.8389,2.8378,2.8372,2.8392,2.8365,2.8376,2.839,2.8388,2.8389,2.8447,2.8426,2.845,2.8488,2.8506,2.8513,2.852,2.8541,2.8549,2.8454,2.8455,2.8455,0,2.8425,2.8442,2.8419,2.8435,2.8437,2.8405,2.8427,2.8426,2.8423,2.8425,2.8407,2.8424,2.8419,2.8447,2.8461,2.8463,2.8468,2.8451,2.8514,2.852,2.8526,2.8546,2.8554,2.8457,2.8457,2.8457,2.8457,0,2.8488,2.85,2.8519,2.8517,2.8521,2.854,2.852,2.8527,2.8511,2.8501,2.8522,2.8514,2.8519,2.8524,2.8509,2.855,2.854,2.8519,2.8487,2.8538,2.8557,2.8564,2.8462,2.8461,2.846,2.8459,0,0,2.8577,2.8562,2.8569,2.8568,2.856,2.8569,2.8587,2.8591,2.8598,2.8597,2.8611,2.8624,2.8605,2.8606,2.859,2.8605,2.8653,2.8582,2.8582,2.8596,2.8698,2.8714,2.8723,2.8639,2.864,2.8641,2.8698,0,2.8634,2.8663,2.8643,2.8676,2.8687,2.8657,2.8672,2.8669,2.866,2.8668,2.8657,2.8667,2.864,2.8641,2.8654,2.8644,2.8673,2.864,2.8652,2.8653,2.8655,2.8733,2.875,2.8804,2.8705,2.8706,2.8707,0,2.8704,2.8706,2.874,2.873,2.8733,2.8748,2.875,2.8758,2.8754,2.8746,2.8748,2.8728,2.8745,2.8714,2.8738,2.8716,2.872,2.8715,2.8717,2.8717,2.8683,2.8735,2.882,2.8829,2.8718,2.8717,2.8716,0,2.8766,2.8777,2.8799,2.8799,2.8787,2.8798,2.8794,2.8788,2.8792,2.8794,2.8796,2.88,2.8803,2.8807,2.8789,2.8768,2.8815,2.8782,2.8809,2.881,2.882,2.882,2.8907,2.8823,2.8823,2.8822,2.8822,0,2.8831,2.8853,2.8827,2.884,2.8864,2.8841,2.8866,2.8858,2.8853,2.8865,2.8839,2.885,2.8826,2.8835,2.8821,2.8843,2.8844,2.8839,2.8835,2.8841,2.8842,2.8843,2.8839,2.8825,2.8824,2.8824,2.8823,0,2.8904,2.8887,2.8909,2.8896,2.8894,2.8912,2.8901,2.8913,2.8902,2.8917,2.892,2.8902,2.8911,2.8894,2.8901,2.8892,2.8923,2.8913,2.8924,2.8921,2.8949,2.8947,2.9041,2.9052,2.896,2.8961,2.8962,0,2.8947,2.8964,2.8953,2.8958,2.8956,2.8965,2.8969,2.8947,2.8952,2.8949,2.8962,2.8969,2.8974,2.899,2.8978,2.8984,2.8974,2.9007,2.8975,2.8981,2.8975,2.8974,2.8976,2.9013,2.9015,2.9015,2.9016,0,2.9025,2.9016,2.9022,2.9026,2.9031,2.9033,2.9033,2.9039,2.9016,2.9023,2.9033,2.9036,2.9044,2.9051,2.9054,2.905,2.903,2.9026,2.9033,2.904,2.9046,2.9043,2.8942,2.9024,2.9023,2.9023,2.9022,2.9022,2.9085,2.9098,2.9092,2.91,2.9098,2.9099,2.9109,2.9099,2.9107,2.9111,2.9098,2.911,2.9106,2.9107,2.9105,2.9115,2.9101,2.911,2.9112,2.9115,2.912,2.9044,2.9116,2.9115,2.9115,2.9115,2.9115,0,2.9162,2.9157,2.9164,2.9165,2.9172,2.9151,2.915,2.9157,2.9168,2.9166,2.9171,2.9182,2.9189,2.9178,2.9184,2.9194,2.9185,2.9196,2.9195,2.9195,2.9132,2.9126,2.9203,2.9203,2.9203,2.9203,2.9203,2.9203,2.9203,2.9224,2.9214,2.9234,2.9229,2.9241,2.9242,2.9243,2.9241,2.9254,2.926,2.9252,2.9246,2.9251,2.9257,2.9254,2.9257,2.9272,2.9266,2.9208,2.9199,2.9191,2.9185,2.9273,2.9273,2.9327,2.9328,2.9328]}]]